This is the latest recevied weather packets stored in our database for station/object KA3BQE-13. If no packets are shown the sender has not sent any weather packets the latest 10 day(s).
| Time | Temp. | Humidity | Pressure | Rain* | Wind** | Luminosity | Snow |
|---|---|---|---|---|---|---|---|
| 1778191844 | 15.56° C | 54% | 1014 hPa | 0 mm | - | 72 W/m² | - |
| 1778191542 | 16.11° C | 53% | 1014 hPa | 0 mm | - | 96 W/m² | - |
| 1778191239 | 15.56° C | 54% | 1013.9 hPa | 0 mm | - | 76 W/m² | - |
| 1778190935 | 16.11° C | 56% | 1013.9 hPa | 0 mm | - | 220 W/m² | - |
| 1778190633 | 16.67° C | 55% | 1013.7 hPa | 0 mm | - | 420 W/m² | - |
| 1778190330 | 16.11° C | 55% | 1013.7 hPa | 0 mm | - | 470 W/m² | - |
| 1778190026 | 16.11° C | 55% | 1013.8 hPa | 0 mm | - | 431 W/m² | - |
| 1778189722 | 16.67° C | 57% | 1014.1 hPa | 0 mm | - | 505 W/m² | - |
| 1778189420 | 16.11° C | 60% | 1014.2 hPa | 0 mm | - | 521 W/m² | - |
| 1778189115 | 15.56° C | 59% | 1014.4 hPa | 0 mm | - | 544 W/m² | - |
| 1778188812 | 16.11° C | 62% | 1014.3 hPa | 0 mm | - | 603 W/m² | - |
| 1778188509 | 15.56° C | 61% | 1014.3 hPa | 0 mm | - | 269 W/m² | - |
| 1778188205 | 14.44° C | 63% | 1014.3 hPa | 0 mm | - | 284 W/m² | - |
| 1778187903 | 13.89° C | 61% | 1014.6 hPa | 0 mm | - | 74 W/m² | - |
| 1778187599 | 13.89° C | 64% | 1014.4 hPa | 0 mm | - | 115 W/m² | - |
| 1778187296 | 13.89° C | 65% | 1014.2 hPa | 0 mm | - | 123 W/m² | - |
| 1778186992 | 14.44° C | 63% | 1014.5 hPa | 0 mm | - | 199 W/m² | - |
| 1778186689 | 14.44° C | 65% | 1014.4 hPa | 0 mm | - | 475 W/m² | - |
| 1778186386 | 13.89° C | 66% | 1014.5 hPa | 0 mm | - | 254 W/m² | - |
| 1778186084 | 13.89° C | 65% | 1014.4 hPa | 0 mm | - | 170 W/m² | - |
| 1778185780 | 13.89° C | 67% | 1014.4 hPa | 0 mm | - | 149 W/m² | - |
| 1778185477 | 13.89° C | 63% | 1014.6 hPa | 0 mm | - | 184 W/m² | - |
| 1778185173 | 15° C | 62% | 1014.7 hPa | 0 mm | - | 284 W/m² | - |
| 1778184873 | 15° C | 69% | 1014.8 hPa | 0 mm | - | 841 W/m² | - |
| 1778184570 | 13.33° C | 74% | 1014.7 hPa | 0 mm | - | 609 W/m² | - |
* Rain latest hour (hover to see other rain measurements)
** Current wind speed in m/s (hover to see current wind gust speed)